EW5549 Weather Reports


Display with metric or nautical units.
time (UTC)temp
F
wind
direction
speed
MPH
gust
MPH
rain 1hr
in
rain 24hr
in
rain mn
in
humidity
%
barometer
mb
20260905071852 55 271 5.0 6.0 0.00 0.00 0.00 81 1018.6
20260905071343 56 281 5.0 6.0 0.00 0.00 0.00 81 1018.4
20260905070837 56 273 4.0 5.0 0.00 0.00 0.00 78 1018.2
20260905070334 56 285 4.0 5.0 0.00 0.00 0.00 78 1018.2
20260905065833 57 315 3.0 3.0 0.00 0.00 0.00 76 1018.0
20260905065331 56 281 7.0 7.0 0.00 0.00 0.00 78 1017.9
20260905064827 56 283 6.0 7.0 0.00 0.00 0.00 78 1017.7
20260905064323 57 309 7.0 8.0 0.00 0.00 0.00 77 1017.6
20260905063820 57 339 8.0 9.0 0.00 0.00 0.00 79 1017.7
20260905063317 57 322 6.0 7.0 0.00 0.00 0.00 78 1017.7
20260905062812 57 324 5.0 6.0 0.00 0.00 0.00 78 1017.9
20260905062307 57 308 6.0 7.0 0.00 0.00 0.00 77 1017.6
20260905061802 56 331 5.0 6.0 0.00 0.00 0.00 77 1017.6
20260905061256 56 15 3.0 3.0 0.00 0.00 0.00 77 1017.7
20260905060750 57 337 4.0 5.0 0.00 0.00 0.00 76 1017.7
20260905060247 57 311 5.0 6.0 0.00 0.00 0.00 75 1017.7
20260905055745 57 302 5.0 7.0 0.00 0.00 0.00 75 1017.5
20260905055241 57 346 4.0 6.0 0.00 0.00 0.00 76 1017.6
20260905054736 57 5 3.0 5.0 0.00 0.00 0.00 76 1017.4
20260905054232 57 0 4.0 5.0 0.00 0.00 0.00 76 1017.7
20260905053731 58 316 3.0 5.0 0.00 0.00 0.00 75 1017.6
20260905053226 59 315 7.0 8.0 0.00 0.00 0.00 73 1017.6
20260905052721 59 318 12.0 14.0 0.00 0.00 0.00 71 1017.9
20260905052216 59 294 11.0 14.0 0.00 0.00 0.00 71 1017.7
20260905051715 59 328 5.0 6.0 0.00 0.00 0.00 72 1018.2
20260905051212 59 340 9.0 11.0 0.00 0.00 0.00 72 1018.0
20260905050708 59 276 10.0 11.0 0.00 0.00 0.00 72 1017.9
20260905050205 59 303 11.0 13.0 0.00 0.00 0.00 72 1017.8
20260905045704 60 299 10.0 14.0 0.00 0.00 0.00 71 1017.9
20260905045200 60 266 11.0 14.0 0.00 0.00 0.00 70 1018.4
20260905044655 59 274 13.0 15.0 0.00 0.00 0.00 70 1017.8
20260905044150 59 279 8.0 9.0 0.00 0.00 0.00 71 1017.3
20260905043649 59 298 6.0 7.0 0.00 0.00 0.00 71 1017.0
20260905043144 59 291 7.0 8.0 0.00 0.00 0.00 72 1016.9
20260905042643 59 288 7.0 8.0 0.00 0.00 0.00 72 1016.7
20260905042137 60 308 8.0 9.0 0.00 0.00 0.00 70 1016.8
20260905041633 59 298 7.0 8.0 0.00 0.00 0.00 71 1016.9
20260905041128 60 2 4.0 7.0 0.00 0.00 0.00 70 1016.7
20260905040629 60 306 9.0 11.0 0.00 0.00 0.00 70 1016.6
20260905040127 60 302 8.0 9.0 0.00 0.00 0.00 69 1016.5
20260905035622 61 316 11.0 13.0 0.00 0.00 0.00 68 1016.4
20260905035119 61 341 7.0 9.0 0.00 0.00 0.00 68 1016.6
20260905034614 62 327 7.0 8.0 0.00 0.00 0.00 65 1016.5
20260905034108 62 311 7.0 8.0 0.00 0.00 0.00 64 1016.6
20260905033608 63 302 8.0 9.0 0.00 0.00 0.00 61 1016.5
20260905033104 64 296 10.0 11.0 0.00 0.00 0.00 59 1016.5
20260905032603 64 290 11.0 11.0 0.00 0.00 0.00 59 1016.8
20260905032058 64 292 12.0 14.0 0.00 0.00 0.00 59 1016.9
20260905031554 63 258 11.0 14.0 0.00 0.00 0.00 59 1016.5
20260905031054 63 246 9.0 9.0 0.00 0.00 0.00 59 1016.1
20260905030549 63 274 7.0 7.0 0.00 0.00 0.00 59 1016.1
20260905030044 63 272 6.0 7.0 0.00 0.00 0.00 60 1016.1
20260905025539 63 263 8.0 8.0 0.00 0.00 0.00 60 1015.9
20260905025035 63 254 9.0 10.0 0.00 0.00 0.00 59 1015.9
20260905024530 63 274 6.0 7.0 0.00 0.00 0.00 60 1015.8
20260905024026 63 276 6.0 7.0 0.00 0.00 0.00 59 1015.7
20260905023521 63 256 7.0 8.0 0.00 0.00 0.00 58 1015.7
20260905023021 63 282 9.0 9.0 0.00 0.00 0.00 58 1015.8
20260905022515 63 284 9.0 11.0 0.00 0.00 0.00 59 1015.5
20260905022010 63 281 9.0 10.0 0.00 0.00 0.00 59 1015.6
20260905021509 63 262 9.0 10.0 0.00 0.00 0.00 60 1015.4
20260905021005 63 278 8.0 9.0 0.00 0.00 0.00 61 1015.5
20260905020500 64 265 7.0 8.0 0.00 0.00 0.00 59 1015.4
20260905015959 65 286 7.0 8.0 0.00 0.00 0.00 57 1015.0
20260905015458 65 299 10.0 10.0 0.00 0.00 0.00 58 1014.9
20260905014957 66 314 9.0 10.0 0.00 0.00 0.00 60 1015.0
20260905014453 66 287 7.0 8.0 0.00 0.00 0.00 59 1015.0
20260905013948 66 284 9.0 10.0 0.00 0.00 0.00 58 1014.9
20260905013444 67 254 9.0 13.0 0.00 0.00 0.00 57 1014.7
20260905012939 68 287 11.0 13.0 0.00 0.00 0.00 53 1014.6
20260905012434 69 263 9.0 10.0 0.00 0.00 0.00 51 1014.4
20260905011931 69 262 11.0 13.0 0.00 0.00 0.00 49 1014.0
20260905011427 70 275 10.0 11.0 0.00 0.00 0.00 49 1013.9
20260905010922 71 290 9.0 10.0 0.00 0.00 0.00 47 1013.9
20260905010417 71 263 8.0 8.0 0.00 0.00 0.00 45 1013.7
20260905005913 71 254 5.0 6.0 0.00 0.00 0.00 46 1013.4
20260905005409 71 249 5.0 6.0 0.00 0.00 0.00 46 1013.2
20260905004904 72 263 7.0 8.0 0.00 0.00 0.00 44 1012.9
20260905004403 72 287 4.0 5.0 0.00 0.00 0.00 45 1012.9
20260905003859 72 276 4.0 5.0 0.00 0.00 0.00 46 1013.0
20260905003354 72 262 5.0 6.0 0.00 0.00 0.00 47 1013.0
20260905002849 72 251 5.0 6.0 0.00 0.00 0.00 45 1012.9
20260905002344 73 279 5.0 6.0 0.00 0.00 0.00 45 1012.9
20260905001839 73 319 3.0 3.0 0.00 0.00 0.00 45 1013.0
20260905001339 73 243 3.0 3.0 0.00 0.00 0.00 45 1013.0
20260905000834 73 285 3.0 3.0 0.00 0.00 0.00 45 1012.9
20260905000329 73 276 4.0 5.0 0.00 0.00 0.00 45 1013.0
20260904235825 73 302 5.0 6.0 0.00 0.00 0.00 45 1012.8
20260904235320 73 350 5.0 7.0 0.00 0.00 0.00 43 1012.7
20260904234814 73 301 7.0 9.0 0.00 0.00 0.00 42 1012.8
20260904234309 74 277 10.0 11.0 0.00 0.00 0.00 43 1013.0
20260904233805 76 280 6.0 8.0 0.00 0.00 0.00 36 1012.9
20260904233301 76 272 8.0 9.0 0.00 0.00 0.00 35 1012.9
20260904232757 75 271 7.0 9.0 0.00 0.00 0.00 36 1012.8
20260904232253 75 269 5.0 5.0 0.00 0.00 0.00 37 1012.8
20260904231749 75 298 4.0 5.0 0.00 0.00 0.00 35 1012.9
20260904231244 75 298 5.0 6.0 0.00 0.00 0.00 35 1012.8
20260904230739 75 304 5.0 6.0 0.00 0.00 0.00 35 1012.7
20260904230233 76 316 5.0 5.0 0.00 0.00 0.00 34 1012.9
20260904225732 76 332 2.0 2.0 0.00 0.00 0.00 33 1012.7
20260904225226 76 44 2.0 2.0 0.00 0.00 0.00 35 1012.6
20260904224725 76 38 2.0 2.0 0.00 0.00 0.00 35 1012.4
20260904224221 78 21 2.0 2.0 0.00 0.00 0.00 34 1012.6
20260904223720 77 17 2.0 2.0 0.00 0.00 0.00 33 1012.5
20260904223215 77 21 3.0 3.0 0.00 0.00 0.00 34 1012.7
20260904222711 77 51 3.0 3.0 0.00 0.00 0.00 33 1012.8
20260904222207 76 88 2.0 2.0 0.00 0.00 0.00 33 1012.8
20260904221706 77 84 3.0 5.0 0.00 0.00 0.00 36 1012.8
20260904221201 78 299 5.0 6.0 0.00 0.00 0.00 33 1012.6
20260904220656 77 103 5.0 6.0 0.00 0.00 0.00 34 1012.7
20260904220151 77 40 1.0 2.0 0.00 0.00 0.00 34 1012.7
20260904215650 78 72 3.0 5.0 0.00 0.00 0.00 36 1012.6
20260904215147 77 80 2.0 3.0 0.00 0.00 0.00 35 1012.5
20260904214641 77 25 3.0 5.0 0.00 0.00 0.00 37 1012.6
20260904214137 77 19 2.0 2.0 0.00 0.00 0.00 35 1012.6
20260904213634 76 27 5.0 6.0 0.00 0.00 0.00 38 1012.5
20260904213131 76 349 3.0 3.0 0.00 0.00 0.00 36 1012.6
20260904212626 76 55 1.0 1.0 0.00 0.00 0.00 36 1012.5
20260904212121 76 348 3.0 5.0 0.00 0.00 0.00 36 1012.5
20260904211620 77 303 5.0 7.0 0.00 0.00 0.00 36 1012.5
20260904211116 77 333 4.0 6.0 0.00 0.00 0.00 36 1012.7
20260904210616 77 41 2.0 2.0 0.00 0.00 0.00 37 1012.8
20260904210111 77 1 4.0 5.0 0.00 0.00 0.00 38 1012.7
20260904205607 77 10 5.0 6.0 0.00 0.00 0.00 38 1012.6
20260904205103 76 338 3.0 3.0 0.00 0.00 0.00 37 1012.8
20260904204559 76 12 3.0 3.0 0.00 0.00 0.00 37 1012.7
20260904204055 76 46 2.0 2.0 0.00 0.00 0.00 38 1012.6
20260904203550 76 350 3.0 3.0 0.00 0.00 0.00 39 1012.7
20260904203047 76 356 4.0 5.0 0.00 0.00 0.00 40 1012.7
20260904202542 74 347 3.0 3.0 0.00 0.00 0.00 41 1012.6
20260904202039 74 33 3.0 3.0 0.00 0.00 0.00 40 1012.6
20260904201533 74 359 2.0 3.0 0.00 0.00 0.00 40 1012.5
20260904201028 74 10 2.0 3.0 0.00 0.00 0.00 41 1012.7
20260904200527 74 14 3.0 5.0 0.00 0.00 0.00 40 1012.4
20260904200023 74 12 2.0 2.0 0.00 0.00 0.00 43 1012.6
20260904195521 73 39 3.0 3.0 0.00 0.00 0.00 41 1012.6
20260904195020 73 343 3.0 3.0 0.00 0.00 0.00 45 1012.7
20260904194514 74 51 3.0 3.0 0.00 0.00 0.00 43 1012.4
20260904194004 74 61 3.0 5.0 0.00 0.00 0.00 41 1012.5
20260904193459 74 51 3.0 5.0 0.00 0.00 0.00 40 1012.5
20260904192955 75 38 1.0 2.0 0.00 0.00 0.00 39 1012.4
20260904192455 75 25 0.0 1.0 0.00 0.00 0.00 39 1012.4
20260904191951 75 48 1.0 1.0 0.00 0.00 0.00 39 1012.5
20260904191447 75 10 2.0 2.0 0.00 0.00 0.00 40 1012.5
20260904190944 75 63 3.0 3.0 0.00 0.00 0.00 39 1012.2
20260904190439 75 32 4.0 5.0 0.00 0.00 0.00 39 1012.4
20260904185935 74 28 6.0 9.0 0.00 0.00 0.00 39 1012.4
20260904185431 73 72 4.0 5.0 0.00 0.00 0.00 41 1012.5
20260904184930 72 37 4.0 6.0 0.00 0.00 0.00 42 1012.5
20260904184425 73 24 3.0 3.0 0.00 0.00 0.00 43 1012.5
20260904183921 73 68 2.0 2.0 0.00 0.00 0.00 43 1012.5
20260904183416 73 65 1.0 1.0 0.00 0.00 0.00 45 1012.5
20260904182912 74 54 3.0 5.0 0.00 0.00 0.00 42 1012.4
20260904182407 73 72 2.0 2.0 0.00 0.00 0.00 43 1012.4
20260904181901 72 77 3.0 5.0 0.00 0.00 0.00 43 1012.8
20260904181356 72 17 2.0 2.0 0.00 0.00 0.00 42 1012.5
20260904180851 73 34 3.0 3.0 0.00 0.00 0.00 43 1012.7
20260904180347 72 34 2.0 2.0 0.00 0.00 0.00 43 1012.6
20260904175846 71 40 1.0 1.0 0.00 0.00 0.00 42 1012.6
20260904175344 71 302 5.0 6.0 0.00 0.00 0.00 42 1012.7
20260904174838 70 333 3.0 3.0 0.00 0.00 0.00 45 1012.6
20260904174329 71 345 7.0 9.0 0.00 0.00 0.00 43 1012.6
20260904173825 72 316 2.0 3.0 0.00 0.00 0.00 45 1012.4
20260904173320 71 307 6.0 7.0 0.00 0.00 0.00 44 1012.5
20260904172816 70 324 5.0 7.0 0.00 0.00 0.00 46 1012.6
20260904172314 69 12 5.0 6.0 0.00 0.00 0.00 47 1012.4
20260904171809 69 2 4.0 5.0 0.00 0.00 0.00 47 1012.7
20260904171304 68 316 8.0 9.0 0.00 0.00 0.00 48 1012.4
20260904170801 68 326 6.0 7.0 0.00 0.00 0.00 46 1012.6
20260904170257 68 2 3.0 3.0 0.00 0.00 0.00 49 1012.5
20260904165755 68 319 9.0 10.0 0.00 0.00 0.00 49 1012.7
20260904165250 67 281 8.0 9.0 0.00 0.00 0.00 48 1012.7
20260904164744 66 335 4.0 5.0 0.00 0.00 0.00 50 1012.5
20260904164240 66 302 5.0 6.0 0.00 0.00 0.00 49 1012.7
20260904163736 66 260 8.0 9.0 0.00 0.00 0.00 50 1012.9
20260904163231 66 276 9.0 11.0 0.00 0.00 0.00 51 1012.6
20260904162730 65 225 9.0 9.0 0.00 0.00 0.00 50 1012.9
20260904162225 65 266 9.0 10.0 0.00 0.00 0.00 51 1012.8
20260904161721 65 227 11.0 13.0 0.00 0.00 0.00 50 1013.0
20260904161215 66 255 11.0 13.0 0.00 0.00 0.00 51 1012.8
20260904160711 65 245 5.0 7.0 0.00 0.00 0.00 52 1012.8
20260904160207 65 256 9.0 10.0 0.00 0.00 0.00 52 1012.8
20260904155706 64 255 5.0 6.0 0.00 0.00 0.00 52 1012.9
20260904155206 64 357 4.0 6.0 0.00 0.00 0.00 53 1012.7
20260904154705 65 264 5.0 7.0 0.00 0.00 0.00 51 1012.8
20260904154205 64 14 3.0 3.0 0.00 0.00 0.00 51 1012.9
20260904153700 64 27 2.0 2.0 0.00 0.00 0.00 50 1012.7
20260904153155 64 26 2.0 3.0 0.00 0.00 0.00 53 1012.5
20260904152652 64 355 4.0 5.0 0.00 0.00 0.00 52 1012.5
20260904152147 63 14 1.0 2.0 0.00 0.00 0.00 56 1012.6
20260904151642 63 30 3.0 3.0 0.00 0.00 0.00 53 1012.5
20260904151141 63 321 5.0 7.0 0.00 0.00 0.00 53 1012.5
20260904150637 62 358 2.0 3.0 0.00 0.00 0.00 56 1012.5
20260904150132 62 308 5.0 5.0 0.00 0.00 0.00 57 1012.4
20260904145631 62 334 6.0 7.0 0.00 0.00 0.00 58 1012.1
20260904145126 61 303 7.0 7.0 0.00 0.00 0.00 58 1012.1
20260904144621 60 287 7.0 7.0 0.00 0.00 0.00 60 1011.9
20260904144117 58 338 4.0 5.0 0.00 0.00 0.00 63 1011.7
20260904143613 57 297 5.0 6.0 0.00 0.00 0.00 65 1011.6
20260904143109 57 265 5.0 7.0 0.00 0.00 0.00 64 1011.6
20260904142606 57 300 3.0 3.0 0.00 0.00 0.00 63 1011.6
20260904142106 57 281 4.0 5.0 0.00 0.00 0.00 63 1011.2
20260904141601 57 281 7.0 9.0 0.00 0.00 0.00 62 1011.0
20260904141056 57 327 3.0 3.0 0.00 0.00 0.00 63 1010.9
20260904140552 56 286 4.0 5.0 0.00 0.00 0.00 66 1010.6
20260904140046 56 7 2.0 2.0 0.00 0.00 0.00 67 1010.6
20260904135545 57 317 4.0 5.0 0.00 0.00 0.00 65 1010.7
20260904135041 56 287 5.0 6.0 0.00 0.00 0.00 64 1010.3
20260904134537 55 296 5.0 5.0 0.00 0.00 0.00 67 1010.2
20260904134031 55 290 3.0 3.0 0.00 0.00 0.00 68 1009.7
20260904133525 54 285 4.0 5.0 0.00 0.00 0.00 69 1009.7
20260904133022 54 296 3.0 3.0 0.00 0.00 0.00 71 1009.4
20260904132521 53 292 2.0 2.0 0.00 0.00 0.00 72 1009.4
20260904132016 52 243 3.0 3.0 0.00 0.00 0.00 74 1009.2
20260904131516 51 250 2.0 2.0 0.00 0.00 0.00 75 1008.7
20260904131012 52 243 3.0 5.0 0.00 0.00 0.00 73 1008.8
20260904130511 52 213 2.0 2.0 0.00 0.00 0.00 73 1008.8
20260904130006 52 133 0.0 1.0 0.00 0.00 0.00 73 1008.3
20260904125502 52 132 0.0 0.0 0.00 0.00 0.00 73 1008.2
20260904124956 53 132 0.0 0.0 0.00 0.00 0.00 72 1008.3
20260904124452 53 133 1.0 1.0 0.00 0.00 0.00 72 1008.1
20260904123948 53 133 3.0 3.0 0.00 0.00 0.00 72 1008.0
20260904123442 52 102 2.0 2.0 0.00 0.00 0.00 74 1008.0
20260904122938 53 96 1.0 1.0 0.00 0.00 0.00 74 1008.2
20260904122438 53 80 1.0 1.0 0.00 0.00 0.00 74 1008.1
20260904121938 53 80 0.0 0.0 0.00 0.00 0.00 74 1008.2
20260904121434 53 80 2.0 2.0 0.00 0.00 0.00 73 1008.1
20260904120931 53 80 1.0 1.0 0.00 0.00 0.00 74 1008.4
20260904120426 53 80 1.0 1.0 0.00 0.00 0.00 75 1008.1
20260904115921 52 80 1.0 1.0 0.00 0.00 0.00 76 1008.0
20260904115416 52 75 0.0 0.0 0.00 0.00 0.00 78 1008.2
20260904114910 52 75 1.0 1.0 0.00 0.00 0.00 78 1008.1
20260904114405 52 75 1.0 1.0 0.00 0.00 0.00 79 1008.2
20260904113901 53 76 1.0 2.0 0.00 0.00 0.00 76 1008.2
20260904113400 53 82 0.0 0.0 0.00 0.00 0.00 75 1008.2
20260904112854 54 82 0.0 0.0 0.00 0.00 0.00 73 1008.4
20260904112350 53 82 0.0 0.0 0.00 0.00 0.00 73 1008.2
20260904111845 54 82 2.0 2.0 0.00 0.00 0.00 72 1008.0
20260904111341 55 276 2.0 2.0 0.00 0.00 0.00 68 1008.2
20260904110837 56 276 1.0 1.0 0.00 0.00 0.00 65 1008.2
20260904110335 56 276 2.0 2.0 0.00 0.00 0.00 64 1008.0
20260904105830 56 276 2.0 2.0 0.00 0.00 0.00 65 1007.8
20260904105325 56 277 2.0 2.0 0.00 0.00 0.00 66 1008.1
20260904104820 56 274 3.0 3.0 0.00 0.00 0.00 66 1008.1
20260904104316 56 252 4.0 5.0 0.00 0.00 0.00 65 1008.3
20260904103812 57 254 5.0 6.0 0.00 0.00 0.00 62 1008.3
20260904103312 57 272 4.0 5.0 0.00 0.00 0.00 62 1008.3
20260904102808 57 278 3.0 3.0 0.00 0.00 0.00 62 1008.3
20260904102306 56 341 2.0 2.0 0.00 0.00 0.00 65 1008.2
20260904101759 56 265 4.0 5.0 0.00 0.00 0.00 64 1008.3
20260904101255 56 272 3.0 3.0 0.00 0.00 0.00 65 1008.3
20260904100751 56 251 3.0 3.0 0.00 0.00 0.00 65 1008.3
20260904100247 56 239 3.0 3.0 0.00 0.00 0.00 64 1008.2
20260904095746 56 107 1.0 2.0 0.00 0.00 0.00 65 1008.2
20260904095241 56 92 2.0 2.0 0.00 0.00 0.00 63 1008.2
20260904094736 57 32 0.0 0.0 0.00 0.00 0.00 63 1008.2
20260904094231 57 9 1.0 2.0 0.00 0.00 0.00 62 1008.3
20260904093728 58 7 0.0 1.0 0.00 0.00 0.00 61 1008.4
20260904093227 58 289 3.0 3.0 0.00 0.00 0.00 60 1008.6
20260904092723 59 311 1.0 1.0 0.00 0.00 0.00 59 1008.6
20260904092219 58 236 2.0 2.0 0.00 0.00 0.00 62 1008.8
20260904091715 56 128 2.0 2.0 0.00 0.00 0.00 65 1008.7
20260904091209 56 78 0.0 0.0 0.00 0.00 0.00 70 1008.6
20260904090705 55 78 0.0 0.0 0.00 0.00 0.00 74 1008.2
20260904090201 55 73 0.0 0.0 0.00 0.00 0.00 74 1008.7
20260904085656 55 73 0.0 0.0 0.00 0.00 0.00 71 1008.6
20260904085156 54 75 0.0 0.0 0.00 0.00 0.00 75 1008.8
20260904084651 53 75 0.0 0.0 0.00 0.00 0.00 76 1008.7
20260904084147 55 73 0.0 0.0 0.00 0.00 0.00 76 1008.7
20260904083643 56 72 0.0 0.0 0.00 0.00 0.00 69 1008.6
20260904083139 57 90 0.0 0.0 0.00 0.00 0.00 67 1008.8
20260904082634 57 122 2.0 2.0 0.00 0.00 0.00 66 1008.7
20260904082130 56 92 0.0 0.0 0.00 0.00 0.00 68 1008.6
20260904081625 55 88 0.0 0.0 0.00 0.00 0.00 70 1008.8
20260904081120 56 79 0.0 0.0 0.00 0.00 0.00 71 1008.9
20260904080615 57 98 1.0 1.0 0.00 0.00 0.00 68 1008.8
20260904080112 57 106 2.0 2.0 0.00 0.00 0.00 68 1008.9
20260904075607 56 100 1.0 2.0 0.00 0.00 0.00 70 1008.9
20260904075107 56 126 2.0 2.0 0.00 0.00 0.00 71 1008.8
20260904074601 56 127 2.0 2.0 0.00 0.00 0.00 71 1008.7
20260904074056 54 76 2.0 2.0 0.00 0.00 0.00 76 1009.0
20260904073550 57 88 2.0 2.0 0.00 0.00 0.00 74 1008.8
20260904073047 57 78 0.0 0.0 0.00 0.00 0.00 71 1009.0
20260904072542 57 89 1.0 1.0 0.00 0.00 0.00 70 1008.8